Home   Weather   Kyoto   Past weeks
Flag for Japan

Past Weather in Kyoto, Japan — Yesterday and Last 2 Weeks

Now
50 °F

Partly sunny.


Feels Like: 47 °F
Forecast: 59 / 31 °F
Wind: 7 mph from West

Location: Osaka International Airport

Current Time: Mar 24, 2019 at 1:07:27 pm

Latest Report: Mar 24, 2019 at 12:00 pm


Visibility: N/A

Pressure: 30.09 "Hg

Humidity: 50%

Dew Point: 32 °F

Location of KyotoLocation

Past Weather in Kyoto — Graph

°F

Kyoto Temperature Yesterday

Maximum temperature yesterday: 52 °F (at 12:00 pm)
Minimum temperature yesterday: 43 °F (at 5:00 am)
Average temperature yesterday: 47 °F

High & Low Weather Summary for the Past Weeks

 TemperatureHumidityPressure
High68 °F (Mar 21, 2:00 pm)100% (Mar 11, 6:00 am)30.30 "Hg (Mar 11, 6:00 am)
Low34 °F (Mar 15, 5:00 am)15% (Mar 18, 4:00 pm)29.47 "Hg (Mar 11, 5:00 am)
Average51 °F64%29.96 "Hg
* Reported Mar 9 12:00 pm — Mar 24 12:00 pm, Kyoto. Weather by CustomWeather, © 2019

Note: Actual official high and low records may vary slightly from our data, if they occured in-between our weather recording intervals... More about our weather records

Advertising

Kyoto Weather History for the Previous 24 Hours

Scroll right to see more
 ConditionsComfort  
Time TempWeatherWind HumidityBarometerVisibility
12:00 pm
Sun, Mar 24
50 °FPartly sunny.7 mph50%30.09 "HgN/A
11:00 am50 °FPartly sunny.6 mph43%30.12 "HgN/A
9:00 am46 °FScattered clouds.3 mph57%30.12 "HgN/A
8:00 am43 °FPassing clouds.No wind71%30.12 "HgN/A
7:00 am41 °FPassing clouds.6 mph76%30.09 "HgN/A
6:00 am39 °FScattered clouds.5 mph81%30.09 "HgN/A
5:00 am39 °FPassing clouds.No wind81%30.07 "HgN/A
8:00 pm
Sat, Mar 23
43 °FPassing clouds.3 mph61%29.98 "HgN/A
7:00 pm43 °FSprinkles. Partly cloudy.10 mph53%29.98 "HgN/A
6:00 pm46 °FScattered showers. Partly sunny.14 mph40%29.95 "HgN/A
5:00 pm48 °FScattered showers. Broken clouds.13 mph43%29.95 "HgN/A
4:00 pm48 °FScattered showers. Partly sunny.15 mph43%29.92 "HgN/A
3:00 pm48 °FPartly sunny.12 mph40%29.92 "HgN/A
2:00 pm50 °FPartly sunny.13 mph37%29.92 "HgN/A
1:48 pm50 °FPartly sunny.12 mph37%29.95 "HgN/A
1:00 pm50 °FPartly sunny.12 mph37%29.95 "HgN/A
Weather by CustomWeather, © 2019

See weather overview